Location: Moonridge Observatory
(39.2268°N, 77.7914°W)
Time: 18:00:09
(UTC-04:00)

CZ-2C R/B - Visible Passes

Search period start: 24 June 2016 00:00
Search period end: 04 July 2016 00:00
Orbit: 704 x 908 km, 98.2° (Epoch: 24 June)

Date Brightness Start Highest point End Pass type
(mag) Time Alt. Az. Time Alt. Az. Time Alt. Az.
24 Jun 3.8 01:20:30 45° ESE 01:21:34 50° ENE 01:27:04 10° N visible
24 Jun 4.7 03:01:35 23° W 03:01:35 23° W 03:06:01 10° NW visible
25 Jun 4.6 00:55:31 28° E 00:57:00 31° ENE 01:01:57 10° N visible
25 Jun 4.0 02:36:35 37° W 02:36:41 37° W 02:41:58 10° NNW visible
26 Jun 5.2 00:30:31 17° E 00:32:32 20° ENE 00:36:31 10° NNE visible
26 Jun 3.3 02:11:35 60° WSW 02:11:53 61° W 02:17:32 10° NNW visible
27 Jun 5.6 00:05:59 10° E 00:08:09 12° ENE 00:10:18 10° NE visible
27 Jun 3.2 01:46:35 73° SE 01:47:10 84° ENE 01:52:52 10° N visible
27 Jun 5.3 03:27:40 13° W 03:27:40 13° W 03:29:57 10° WNW visible
28 Jun 3.8 01:21:36 47° ESE 01:22:30 52° ENE 01:27:58 10° N visible
28 Jun 4.7 03:02:40 22° W 03:02:40 22° W 03:06:50 10° NW visible
29 Jun 4.5 00:56:36 29° E 00:57:57 32° ENE 01:02:52 10° N visible
29 Jun 4.1 02:37:41 35° W 02:37:41 35° W 02:42:48 10° NNW visible
30 Jun 5.1 00:31:37 17° E 00:33:27 20° ENE 00:37:26 10° NNE visible
30 Jun 3.4 02:12:41 58° WSW 02:12:51 58° W 02:18:23 10° NNW visible
01 Jul 5.6 00:06:49 10° E 00:09:03 12° ENE 00:11:15 10° NE visible
01 Jul 3.1 01:47:42 78° SSE 01:48:07 87° ENE 01:53:44 10° NNW visible
01 Jul 5.3 03:28:47 12° W 03:28:47 12° W 03:30:32 10° WNW visible
02 Jul 3.7 01:22:43 50° E 01:23:27 53° ENE 01:28:51 10° N visible
02 Jul 4.8 03:03:48 20° W 03:03:48 20° W 03:07:37 10° NW visible
03 Jul 4.4 00:57:44 30° E 00:58:52 33° ENE 01:03:44 10° N visible
03 Jul 4.1 02:38:49 33° W 02:38:49 33° W 02:43:37 10° NNW visible
